User: anonymous   Login
Location: South Tamworth Observatory
(43.8246°N, 71.3026°W)
Time: 08:51:01
(UTC-04:00)
Language:

Cosmos 2208 Rocket - Orbit

View from above orbital plane
View from above orbital plane
View from above satellite
View from above satellite

Ground track
Ground track

The orbit data is extracted from the following two-line orbital elements,

1 22081U 92053B   17291.87811378  .00000016  00000-0  15095-4 0  9996
2 22081  74.0449 211.4839 0035476 152.2492 208.0562 14.33390912316560
Epoch (UTC): 18 October 2017 21:04:29
Eccentricity: 0.0035476
inclination: 74.0449°
perigee height: 755 km
apogee height: 806 km
right ascension of ascending node: 211.4839°
argument of perigee: 152.2492°
revolutions per day: 14.33390912
mean anomaly at epoch: 208.0562°
orbit number at epoch: 31656

The dashed part of the orbit path shows where the satellite is in the earth's shadow,  

DLR